"startDT [UTC]","vpos","CH4 [ppm]","stdev(CH4) [ppm]","CO2 [ppm]","stdev(CO2) [ppm]","H2O [ppm]","stdev(H2O)","p_LGR [torr]","T_LGR [C]","mt1_LGR [us]","mt2_LGR [us]","T_ECpre [C]","T_EC1 [C]","T_EC2 [C]","p_inlet [hPa]","p_in [hPa]","p_out [hPa]","T_inlet [C]","RH_inlet [%]","dwpt_inlet [C]","T_vent [C]","RH_vent [%]","dwpt_vent [C]","flow_vent [l min-1]","flow_inlet [l min-1]","dwpt_sample [C]","T_room [C]"
2012-09-06 00:00:00,0.0,1.9155,0.0012,385.53,0.30,255.1,30.9,138.03,31.90,24.65,36.51,0.93,-25.72,18.73,-47,37,-939,24.6,19.2,-0.3,25.0,1.8,-28.9,5.73,2.54,-27.0,31.0
2012-09-06 00:01:00,0.0,1.9150,0.0011,385.52,0.30,255.5,28.8,138.03,31.90,24.65,36.50,0.92,-25.72,18.74,-47,37,-939,24.7,19.3,-0.3,25.0,1.8,-29.0,5.73,2.55,-27.0,31.0
2012-09-06 00:02:00,0.0,1.9145,0.0010,385.68,0.29,258.4,34.7,138.03,31.90,24.65,36.50,0.92,-25.72,18.76,-47,38,-940,24.7,19.2,-0.4,25.0,1.8,-28.9,5.73,2.54,-27.0,31.0
2012-09-06 00:03:00,0.0,1.9147,0.0009,385.67,0.28,252.3,27.8,138.03,31.90,24.65,36.50,1.03,-25.72,18.52,-47,37,-940,24.7,19.2,-0.4,25.0,1.8,-29.0,5.73,2.52,-27.0,31.0
2012-09-06 00:04:00,0.0,1.9137,0.0010,385.62,0.29,253.3,35.1,138.03,31.90,24.65,36.50,1.15,-25.72,16.80,-47,37,-940,24.7,19.1,-0.4,25.0,1.8,-29.0,5.73,2.52,-27.1,31.1
2012-09-06 00:05:00,0.0,1.9139,0.0010,385.59,0.31,259.1,33.9,138.03,31.90,24.65,36.51,1.02,-25.71,14.49,-47,37,-939,24.7,19.0,-0.5,25.0,1.8,-28.9,5.73,2.53,-27.1,31.1
2012-09-06 00:06:00,0.0,1.9145,0.0011,385.66,0.36,255.6,33.8,138.03,31.90,24.65,36.50,0.98,-25.73,12.11,-47,37,-939,24.7,19.1,-0.5,25.0,1.8,-29.0,5.73,2.54,-27.1,31.1
2012-09-06 00:07:00,0.0,1.9145,0.0009,385.59,0.33,255.8,32.7,138.03,31.90,24.66,36.50,1.07,-25.74,9.78,-47,37,-939,24.7,19.1,-0.5,25.0,1.7,-29.1,5.73,2.54,-27.1,31.2
2012-09-06 00:08:00,0.0,1.9146,0.0010,385.59,0.35,261.9,36.9,138.03,31.90,24.65,36.51,1.03,-25.75,7.53,-47,37,-939,24.7,19.1,-0.4,25.0,1.7,-29.0,5.73,2.53,-27.1,31.2
2012-09-06 00:09:00,0.0,1.9137,0.0011,385.71,0.28,257.5,31.1,138.03,31.90,24.65,36.50,0.97,-25.75,5.39,-47,37,-940,24.7,19.0,-0.5,25.1,1.7,-29.0,5.73,2.52,-27.1,31.3
2012-09-06 00:10:00,0.0,1.9137,0.0007,385.54,0.30,260.6,33.8,138.03,31.90,24.65,36.50,1.07,-25.76,3.35,-47,37,-940,24.7,19.2,-0.4,25.0,1.7,-29.1,5.73,2.51,-27.1,31.3
2012-09-06 00:11:00,0.0,1.9134,0.0009,385.72,0.28,256.8,32.6,138.03,31.91,24.65,36.50,1.05,-25.76,1.42,-47,37,-940,24.7,19.2,-0.3,25.0,1.7,-29.0,5.73,2.52,-27.1,31.4
2012-09-06 00:12:00,0.0,1.9129,0.0008,385.59,0.32,258.5,33.1,138.03,31.91,24.65,36.50,0.96,-25.77,-0.41,-47,37,-940,24.7,19.2,-0.4,25.0,1.7,-29.0,5.73,2.54,-27.2,31.4
2012-09-06 00:13:00,0.0,1.9125,0.0010,385.57,0.32,259.9,32.2,138.03,31.91,24.66,36.51,1.03,-25.77,-2.12,-47,37,-940,24.7,19.0,-0.5,25.0,1.7,-29.1,5.73,2.54,-27.1,31.3
2012-09-06 00:14:00,0.0,1.9129,0.0008,385.68,0.32,262.2,30.6,138.03,31.92,24.65,36.50,1.08,-25.77,-3.60,-47,37,-940,24.7,19.0,-0.5,25.0,1.7,-29.0,5.73,2.54,-27.2,31.3
2012-09-06 00:15:00,0.0,1.9126,0.0010,385.59,0.34,250.2,31.0,138.03,31.92,24.65,36.51,0.99,-25.78,-4.69,-47,37,-940,24.7,18.9,-0.6,25.0,1.7,-29.0,5.73,2.52,-27.2,31.2
2012-09-06 00:16:00,0.0,1.9124,0.0008,385.62,0.33,251.4,40.1,138.03,31.92,24.66,36.51,0.99,-25.77,-6.03,-47,37,-940,24.6,18.9,-0.6,25.0,1.7,-29.1,5.73,2.51,-27.2,31.3
2012-09-06 00:17:00,0.0,1.9122,0.0011,385.77,0.28,254.3,32.1,138.03,31.92,24.65,36.50,1.06,-25.79,-7.29,-47,37,-939,24.5,19.1,-0.6,24.9,1.7,-29.1,5.73,2.51,-27.3,31.3
2012-09-06 00:18:00,0.0,1.9126,0.0009,385.67,0.31,241.4,31.0,138.03,31.92,24.65,36.51,1.02,-25.80,-8.50,-47,37,-939,24.4,19.2,-0.6,24.8,1.7,-29.2,5.73,2.54,-27.4,31.2
2012-09-06 00:19:00,0.0,1.9126,0.0010,385.66,0.33,244.8,33.3,138.03,31.92,24.66,36.51,0.96,-25.81,-9.66,-47,37,-939,24.3,19.3,-0.6,24.7,1.7,-29.2,5.73,2.54,-27.5,31.2
2012-09-06 00:20:00,0.0,1.9126,0.0010,385.63,0.26,234.3,26.8,138.03,31.92,24.65,36.51,1.03,-25.82,-10.76,-47,38,-940,24.2,19.4,-0.6,24.7,1.7,-29.3,5.73,2.52,-27.5,31.1
2012-09-06 00:21:00,0.0,1.9131,0.0012,385.66,0.36,230.6,30.8,138.03,31.92,24.65,36.51,1.07,-25.83,-11.89,-47,38,-939,24.1,19.6,-0.5,24.6,1.7,-29.3,5.73,2.52,-27.5,31.1
2012-09-06 00:22:00,0.0,1.9131,0.0010,385.70,0.36,231.3,31.9,138.03,31.92,24.65,36.50,0.97,-25.84,-12.93,-47,38,-940,24.1,19.7,-0.5,24.6,1.7,-29.3,5.73,2.55,-27.6,31.0
2012-09-06 00:23:00,0.0,1.9134,0.0011,385.60,0.27,227.2,31.8,138.03,31.92,24.66,36.50,0.98,-25.85,-13.91,-47,38,-939,24.0,19.7,-0.5,24.5,1.7,-29.4,5.73,2.55,-27.6,31.0
2012-09-06 00:24:00,0.0,1.9136,0.0013,385.60,0.35,231.2,32.9,138.03,31.92,24.66,36.50,1.06,-25.86,-14.86,-47,38,-939,23.9,19.8,-0.5,24.5,1.7,-29.4,5.73,2.52,-27.6,30.9
2012-09-06 00:25:00,0.0,1.9132,0.0011,385.52,0.26,228.0,37.7,138.03,31.92,24.65,36.51,1.04,-25.88,-15.74,-47,38,-939,23.9,19.8,-0.6,24.4,1.8,-29.3,5.73,2.53,-27.6,30.8
2012-09-06 00:26:00,0.0,1.9128,0.0010,385.68,0.33,219.2,36.1,138.03,31.92,24.66,36.50,0.95,-25.89,-16.57,-47,38,-939,23.8,19.9,-0.6,24.4,1.8,-29.3,5.73,2.56,-27.6,30.8
2012-09-06 00:27:00,0.0,1.9130,0.0009,385.50,0.35,218.4,28.7,138.03,31.92,24.65,36.51,1.00,-25.90,-17.33,-47,38,-939,23.8,20.0,-0.5,24.3,1.8,-29.3,5.73,2.55,-27.7,30.7
2012-09-06 00:28:00,0.0,1.9130,0.0009,385.53,0.29,228.6,29.6,138.03,31.92,24.65,36.51,1.05,-25.92,-17.96,-47,38,-939,23.7,20.0,-0.6,24.3,1.8,-29.4,5.73,2.52,-27.7,30.6
2012-09-06 00:29:00,0.0,1.9128,0.0009,385.63,0.30,224.2,29.0,138.03,31.92,24.65,36.50,1.02,-25.94,-18.65,-47,38,-939,23.7,20.1,-0.6,24.2,1.7,-29.5,5.73,2.54,-27.7,30.5
2012-09-06 00:30:00,0.0,1.9129,0.0009,385.60,0.25,212.2,33.0,138.03,31.91,24.65,36.50,0.95,-25.96,-19.30,-47,38,-939,23.6,20.2,-0.5,24.2,1.8,-29.1,5.73,2.57,-27.7,30.5
2012-09-06 00:31:00,0.0,1.9126,0.0011,385.49,0.30,220.2,34.3,138.03,31.92,24.65,36.51,1.00,-25.97,-19.92,-47,38,-939,23.6,20.4,-0.4,24.2,1.9,-28.9,5.73,2.56,-27.7,30.4
2012-09-06 00:32:00,0.0,1.9132,0.0009,385.54,0.32,216.3,36.6,138.03,31.91,24.65,36.51,1.05,-25.98,-20.49,-46,39,-938,23.5,20.4,-0.5,24.1,1.9,-29.0,5.73,2.53,-27.7,30.3
2012-09-06 00:33:00,0.0,1.9130,0.0011,385.56,0.34,213.5,29.7,138.03,31.91,24.65,36.50,1.02,-26.00,-21.04,-47,39,-939,23.5,20.6,-0.4,24.1,1.8,-29.1,5.73,2.54,-27.7,30.3
2012-09-06 00:34:00,0.0,1.9130,0.0009,385.66,0.26,219.0,30.4,138.03,31.91,24.65,36.50,0.95,-26.01,-21.54,-46,39,-938,23.5,20.5,-0.5,24.0,1.8,-29.2,5.73,2.57,-27.7,30.2
2012-09-06 00:35:00,0.0,1.9125,0.0009,385.60,0.34,217.2,33.3,138.03,31.91,24.66,36.51,0.99,-26.03,-22.03,-46,39,-939,23.4,20.5,-0.5,24.0,1.8,-29.2,5.73,2.56,-27.8,30.1
2012-09-06 00:36:00,0.0,1.9128,0.0011,385.62,0.29,214.8,28.3,138.03,31.91,24.65,36.51,1.05,-26.04,-22.48,-46,39,-938,23.4,20.7,-0.4,24.0,1.8,-29.1,5.73,2.54,-27.8,30.1
2012-09-06 00:37:00,0.0,1.9122,0.0012,385.74,0.30,217.3,33.3,138.03,31.91,24.65,36.51,1.03,-26.06,-22.92,-46,39,-939,23.3,20.5,-0.6,23.9,1.9,-29.1,5.73,2.53,-27.8,30.1
2012-09-06 00:38:00,0.0,1.9125,0.0010,385.72,0.25,210.1,33.4,138.03,31.91,24.65,36.50,0.94,-26.07,-23.33,-46,39,-938,23.3,20.6,-0.5,23.9,1.9,-29.1,5.73,2.54,-27.8,30.0
2012-09-06 00:39:00,0.0,1.9128,0.0009,385.73,0.33,221.5,29.1,138.03,31.91,24.66,36.50,0.97,-26.08,-23.71,-46,39,-938,23.3,20.7,-0.5,23.9,1.9,-29.1,5.73,2.57,-27.8,30.0
2012-09-06 00:40:00,0.0,1.9133,0.0011,385.64,0.33,205.3,35.1,138.03,31.91,24.65,36.50,1.02,-26.10,-24.07,-46,39,-939,23.3,20.7,-0.5,23.8,1.9,-29.2,5.73,2.56,-27.8,29.9
2012-09-06 00:41:00,0.0,1.9136,0.0010,385.69,0.29,201.1,32.3,138.03,31.91,24.65,36.50,1.05,-26.11,-24.40,-46,39,-938,23.3,20.7,-0.5,23.8,1.9,-29.1,5.73,2.53,-27.8,29.9
2012-09-06 00:42:00,0.0,1.9138,0.0011,385.66,0.34,214.9,36.5,138.03,31.91,24.65,36.50,0.98,-26.13,-24.72,-46,39,-938,23.3,20.9,-0.4,23.8,1.9,-29.1,5.73,2.54,-27.8,29.8
2012-09-06 00:43:00,0.0,1.9137,0.0010,385.55,0.29,207.2,32.9,138.03,31.91,24.65,36.51,0.95,-26.14,-25.02,-46,39,-938,23.2,21.0,-0.3,23.8,1.9,-29.1,5.73,2.55,-27.8,29.8
2012-09-06 00:44:00,0.0,1.9136,0.0010,385.45,0.30,212.9,31.5,138.03,31.91,24.65,36.51,1.00,-26.15,-25.31,-46,39,-938,23.2,21.0,-0.3,23.8,1.9,-29.1,5.73,2.56,-27.8,29.7
2012-09-06 00:45:00,0.0,1.9129,0.0010,385.67,0.28,210.3,31.0,138.03,31.91,24.66,36.50,1.05,-26.17,-25.58,-46,39,-938,23.2,20.9,-0.4,23.7,1.9,-29.2,5.73,2.55,-27.9,29.7
2012-09-06 00:46:00,0.0,1.9131,0.0010,385.70,0.34,211.8,33.5,138.03,31.91,24.65,36.50,1.01,-26.18,-25.83,-46,39,-938,23.2,20.9,-0.4,23.7,1.9,-29.1,5.73,2.53,-27.8,29.6
2012-09-06 00:47:00,0.0,1.9131,0.0012,385.68,0.30,213.6,35.9,138.03,31.91,24.65,36.51,0.95,-26.20,-26.07,-46,39,-938,23.1,21.0,-0.4,23.7,1.9,-29.2,5.73,2.54,-27.8,29.6
2012-09-06 00:48:00,0.0,1.9133,0.0010,385.58,0.32,217.7,35.6,138.03,31.91,24.65,36.51,0.90,-26.21,-26.15,-46,39,-937,23.1,21.1,-0.4,23.7,1.9,-29.2,5.73,2.54,-27.9,29.6
2012-09-06 00:49:00,0.0,1.9137,0.0011,385.72,0.35,218.6,33.3,138.03,31.91,24.65,36.50,1.01,-26.22,-25.95,-46,39,-938,23.1,21.2,-0.3,23.6,1.9,-29.2,5.73,2.56,-27.9,29.6
2012-09-06 00:50:00,0.0,1.9137,0.0009,385.57,0.27,212.3,34.7,138.03,31.92,24.65,36.50,1.02,-26.22,-26.09,-46,39,-938,23.1,21.3,-0.3,23.6,1.9,-29.3,5.73,2.56,-27.9,29.6
2012-09-06 00:51:00,0.0,1.9129,0.0009,385.55,0.41,219.2,28.6,138.03,31.92,24.66,36.50,1.03,-26.23,-26.22,-46,39,-937,23.0,21.4,-0.2,23.6,1.9,-29.2,5.73,2.53,-27.9,29.5
2012-09-06 00:52:00,0.0,1.9129,0.0009,385.73,0.36,216.0,34.0,138.03,31.92,24.66,36.51,0.99,-26.25,-25.98,-46,39,-937,23.0,21.5,-0.2,23.6,1.9,-29.2,5.73,2.53,-27.9,29.5
2012-09-06 00:53:00,0.0,1.9135,0.0012,385.84,0.28,206.2,28.9,138.03,31.92,24.66,36.50,0.96,-26.25,-26.07,-46,39,-938,23.0,21.3,-0.3,23.5,1.9,-29.2,5.73,2.55,-27.9,29.5
2012-09-06 00:54:00,0.0,1.9131,0.0011,385.87,0.31,207.8,39.1,138.03,31.92,24.65,36.50,0.99,-26.26,-26.25,-46,39,-937,23.0,21.2,-0.4,23.6,1.9,-29.2,5.73,2.56,-27.9,29.5
2012-09-06 00:55:00,0.0,1.9125,0.0010,385.80,0.32,208.3,34.0,138.03,31.92,24.65,36.50,1.00,-26.27,-26.04,-46,39,-937,23.0,21.3,-0.3,23.5,1.9,-29.3,5.73,2.55,-27.9,29.5
2012-09-06 00:56:00,0.0,1.9119,0.0010,385.83,0.34,198.7,32.0,138.03,31.91,24.66,36.51,1.06,-26.28,-26.07,-46,39,-938,23.0,21.2,-0.4,23.5,1.9,-29.3,5.73,2.53,-27.9,29.5
2012-09-06 00:57:00,0.0,1.9106,0.0012,385.85,0.30,215.0,36.8,138.03,31.91,24.66,36.50,0.99,-26.28,-26.25,-46,39,-938,23.0,21.1,-0.4,23.5,1.9,-29.3,5.73,2.53,-27.9,29.4
2012-09-06 00:58:00,0.0,1.9108,0.0011,385.93,0.40,208.2,33.9,138.03,31.91,24.66,36.51,0.97,-26.30,-26.14,-46,39,-937,23.0,21.1,-0.4,23.5,1.9,-29.3,5.73,2.55,-27.9,29.4
2012-09-06 00:59:00,0.0,1.9111,0.0010,385.80,0.37,204.9,33.1,138.03,31.91,24.66,36.51,0.95,-26.30,-26.07,-46,40,-937,23.0,21.2,-0.4,23.5,1.9,-29.3,5.73,2.56,-27.9,29.4
2012-09-06 01:00:00,0.0,1.9111,0.0010,385.88,0.33,215.0,36.0,138.03,31.91,24.65,36.50,0.97,-26.31,-26.23,-46,40,-938,22.9,21.1,-0.5,23.4,1.9,-29.4,5.73,2.55,-28.0,29.3
2012-09-06 01:01:00,0.0,1.9107,0.0012,385.89,0.30,218.5,37.8,138.03,31.91,24.66,36.51,0.91,-26.32,-26.23,-46,40,-937,22.9,21.1,-0.5,23.4,1.9,-29.3,5.73,2.53,-27.9,29.3
2012-09-06 01:02:00,0.0,1.9107,0.0010,385.93,0.29,215.2,34.6,138.03,31.91,24.65,36.50,0.91,-26.15,-26.07,-45,40,-937,22.9,21.1,-0.6,23.4,1.9,-29.3,5.73,2.54,-28.0,29.3
2012-09-06 01:03:00,0.0,1.9108,0.0010,385.78,0.30,208.6,34.3,138.03,31.91,24.66,36.51,0.91,-24.77,-26.21,-45,40,-937,22.9,21.2,-0.5,23.4,1.9,-29.4,5.73,2.55,-27.9,29.3
2012-09-06 01:04:00,0.0,1.9105,0.0009,385.96,0.30,208.8,32.9,138.03,31.91,24.65,36.50,0.94,-22.87,-26.35,-46,40,-938,22.9,21.2,-0.5,23.4,1.9,-29.5,5.73,2.56,-27.6,29.3
2012-09-06 01:05:00,0.0,1.9105,0.0013,385.78,0.28,234.4,37.0,138.03,31.91,24.65,36.50,0.94,-20.95,-26.45,-45,40,-937,22.9,21.3,-0.4,23.3,1.9,-29.2,5.73,2.54,-27.3,29.3
2012-09-06 01:06:00,0.0,1.9116,0.0009,385.79,0.36,253.5,31.8,138.03,31.91,24.65,36.51,0.91,-19.08,-26.51,-45,40,-937,22.9,21.3,-0.4,23.3,2.0,-28.7,5.73,2.53,-27.0,29.3
2012-09-06 01:07:00,0.0,1.9120,0.0010,385.73,0.31,269.0,40.6,138.03,31.91,24.65,36.50,0.86,-17.29,-26.56,-45,40,-937,22.9,21.5,-0.3,23.3,2.1,-28.4,5.73,2.53,-26.9,29.4
2012-09-06 01:08:00,0.0,1.9122,0.0010,385.81,0.30,278.6,32.5,138.03,31.91,24.65,36.50,0.86,-15.60,-26.60,-45,40,-937,22.9,21.6,-0.2,23.3,2.1,-28.0,5.73,2.53,-26.8,29.4
2012-09-06 01:09:00,0.0,1.9116,0.0009,385.79,0.35,286.6,34.9,138.03,31.91,24.65,36.50,0.86,-14.00,-26.63,-45,40,-937,22.9,21.4,-0.3,23.4,2.2,-27.9,5.73,2.55,-26.7,29.5
2012-09-06 01:10:00,0.0,1.9111,0.0012,385.91,0.33,277.6,29.9,138.03,31.91,24.66,36.50,0.90,-12.48,-26.65,-45,40,-937,22.9,21.3,-0.4,23.4,2.1,-27.9,5.73,2.55,-26.6,29.6
2012-09-06 01:11:00,0.0,1.9103,0.0013,385.85,0.38,290.0,30.8,138.03,31.91,24.65,36.50,0.91,-11.04,-26.67,-45,40,-937,23.0,21.2,-0.4,23.4,2.1,-27.9,5.73,2.53,-26.6,29.6
2012-09-06 01:12:00,0.0,1.9104,0.0009,385.88,0.33,275.4,32.1,138.03,31.91,24.65,36.51,0.93,-9.67,-26.68,-45,40,-937,23.0,21.1,-0.4,23.4,2.1,-28.0,5.73,2.53,-26.7,29.6
2012-09-06 01:13:00,0.0,1.9110,0.0011,385.83,0.40,281.6,23.9,138.03,31.91,24.65,36.50,0.95,-8.38,-26.69,-45,40,-937,23.1,21.0,-0.5,23.5,2.1,-28.0,5.73,2.52,-26.7,29.6
2012-09-06 01:14:00,0.0,1.9109,0.0010,385.86,0.33,281.9,33.5,138.03,31.91,24.66,36.50,0.95,-7.16,-26.70,-45,39,-937,23.1,20.9,-0.5,23.5,2.1,-28.1,5.73,2.53,-26.7,29.6
2012-09-06 01:15:00,0.0,1.9112,0.0010,385.72,0.30,279.7,28.9,138.03,31.91,24.65,36.51,0.94,-5.99,-26.71,-45,39,-937,23.1,21.0,-0.4,23.5,2.1,-28.2,5.73,2.54,-26.8,29.6
2012-09-06 01:16:00,0.0,1.9119,0.0012,385.82,0.30,272.0,37.7,138.03,31.91,24.65,36.51,0.90,-4.87,-26.72,-45,39,-937,23.2,21.0,-0.4,23.5,2.0,-28.3,5.73,2.54,-26.8,29.7
2012-09-06 01:17:00,0.0,1.9117,0.0009,385.65,0.37,267.5,37.9,138.03,31.91,24.65,36.51,0.88,-3.81,-26.73,-45,39,-937,23.2,21.2,-0.2,23.5,2.0,-28.4,5.73,2.53,-26.9,29.7
2012-09-06 01:18:00,0.0,1.9122,0.0011,385.83,0.31,263.8,35.7,138.03,31.91,24.65,36.51,0.89,-2.80,-26.73,-45,39,-937,23.2,21.1,-0.3,23.5,2.0,-28.4,5.73,2.52,-26.9,29.7
2012-09-06 01:19:00,0.0,1.9115,0.0013,385.85,0.33,262.5,30.8,138.03,31.91,24.65,36.51,0.89,-1.85,-26.73,-45,39,-937,23.2,21.2,-0.2,23.6,2.0,-28.5,5.73,2.52,-27.0,29.7
2012-09-06 01:20:00,0.0,1.9101,0.0010,385.78,0.37,262.2,35.7,138.03,31.91,24.65,36.49,0.90,-0.95,-26.73,-45,39,-937,23.2,21.1,-0.2,23.6,2.0,-28.5,5.73,2.52,-27.0,29.8
2012-09-06 01:21:00,0.0,1.9101,0.0009,385.70,0.29,260.4,37.3,138.03,31.91,24.65,36.51,0.91,-0.10,-26.74,-45,39,-937,23.2,21.0,-0.3,23.5,2.0,-28.7,5.73,2.54,-27.1,29.8
2012-09-06 01:22:00,0.0,1.9107,0.0008,385.73,0.37,249.0,30.9,138.03,31.90,24.65,36.50,0.93,0.70,-26.73,-45,39,-937,23.2,21.1,-0.3,23.6,1.9,-28.8,5.73,2.54,-27.1,29.8
2012-09-06 01:23:00,0.0,1.9112,0.0011,385.64,0.30,249.0,30.1,138.03,31.90,24.65,36.51,0.92,1.46,-26.73,-45,39,-938,23.2,21.0,-0.3,23.6,1.9,-28.8,5.73,2.53,-27.2,29.8
2012-09-06 01:24:00,0.0,1.9110,0.0010,385.69,0.35,237.7,31.3,138.03,31.90,24.65,36.52,0.93,2.15,-26.73,-45,39,-938,23.2,20.9,-0.4,23.6,1.9,-28.9,5.73,2.52,-27.2,29.8
2012-09-06 01:25:00,0.0,1.9109,0.0011,385.73,0.36,241.6,30.5,138.03,31.89,24.65,36.50,0.93,2.69,-26.73,-45,39,-937,23.2,20.9,-0.4,23.5,1.9,-29.0,5.73,2.52,-27.3,29.8
2012-09-06 01:26:00,0.0,1.9106,0.0009,385.67,0.38,233.2,34.4,138.03,31.89,24.65,36.51,0.93,2.89,-26.72,-45,39,-937,23.2,21.0,-0.3,23.6,1.9,-29.1,5.73,2.52,-27.3,29.8
2012-09-06 01:27:00,0.0,1.9105,0.0009,385.60,0.35,240.4,31.9,138.03,31.88,24.65,36.51,0.94,3.09,-26.72,-45,39,-937,23.2,21.2,-0.2,23.5,1.9,-29.1,5.73,2.54,-27.4,29.8
2012-09-06 01:28:00,0.0,1.9108,0.0010,385.60,0.35,233.6,35.9,138.03,31.88,24.65,36.51,0.95,3.43,-26.72,-45,39,-937,23.2,21.3,-0.2,23.5,1.9,-29.1,5.73,2.54,-27.4,29.8
2012-09-06 01:29:00,0.0,1.9109,0.0008,385.68,0.34,230.9,36.5,138.04,31.87,24.65,36.50,0.94,3.82,-26.71,-45,39,-937,23.1,21.2,-0.3,23.5,1.9,-29.1,5.73,2.53,-27.4,29.8
2012-09-06 01:30:00,0.0,1.9107,0.0011,385.59,0.32,226.7,30.1,138.04,31.87,24.65,36.51,0.92,4.28,-26.70,-45,39,-937,23.1,21.2,-0.3,23.5,1.9,-29.3,5.73,2.52,-27.5,29.8
2012-09-06 01:31:00,0.0,1.9104,0.0009,385.72,0.31,234.3,32.1,138.04,31.86,24.66,36.50,0.91,4.73,-26.70,-45,39,-938,23.1,21.2,-0.3,23.5,1.9,-29.3,5.73,2.51,-27.5,29.8
2012-09-06 01:32:00,0.0,1.9107,0.0011,385.59,0.32,229.0,34.0,138.04,31.86,24.65,36.51,0.91,5.18,-26.70,-45,39,-938,23.1,21.4,-0.1,23.5,1.9,-29.3,5.73,2.53,-27.5,29.9
2012-09-06 01:33:00,0.0,1.9108,0.0010,385.60,0.32,228.2,28.6,138.04,31.85,24.65,36.50,0.92,5.62,-26.69,-45,39,-938,23.1,21.5,-0.1,23.5,1.9,-29.3,5.73,2.54,-27.5,29.9
2012-09-06 01:34:00,0.0,1.9101,0.0008,385.71,0.28,220.1,28.2,138.04,31.85,24.65,36.51,0.89,6.13,-26.69,-45,39,-938,23.1,21.3,-0.3,23.5,1.9,-29.3,5.73,2.54,-27.6,29.8
2012-09-06 01:35:00,0.0,1.9105,0.0008,385.70,0.29,214.5,30.1,138.04,31.84,24.65,36.50,0.88,6.63,-26.69,-45,39,-938,23.1,21.2,-0.3,23.5,1.9,-29.3,5.73,2.53,-27.6,29.8
2012-09-06 01:36:00,0.0,1.9106,0.0010,385.69,0.28,225.0,32.0,138.04,31.84,24.66,36.51,0.90,7.14,-26.68,-45,39,-938,23.1,21.2,-0.3,23.5,1.9,-29.3,5.73,2.52,-27.6,29.8
2012-09-06 01:37:00,0.0,1.9104,0.0009,385.69,0.28,214.3,32.8,138.04,31.83,24.65,36.50,0.91,7.57,-26.68,-45,39,-938,23.1,21.3,-0.2,23.5,1.9,-29.4,5.73,2.53,-27.6,29.9
2012-09-06 01:38:00,0.0,1.9099,0.0009,385.63,0.32,218.1,25.6,138.04,31.83,24.65,36.51,0.93,7.98,-26.68,-45,39,-938,23.0,21.4,-0.2,23.5,1.9,-29.3,5.73,2.54,-27.7,29.9
2012-09-06 01:39:00,0.0,1.9095,0.0008,385.69,0.27,225.1,33.4,138.04,31.82,24.65,36.50,0.91,8.38,-26.67,-45,39,-938,23.0,21.3,-0.3,23.5,1.9,-29.3,5.73,2.55,-27.7,29.9
2012-09-06 01:40:00,0.0,1.9096,0.0008,385.63,0.30,215.6,37.0,138.04,31.81,24.65,36.50,0.92,8.76,-26.67,-45,39,-938,23.0,21.3,-0.4,23.5,1.9,-29.4,5.73,2.53,-27.7,29.9
2012-09-06 01:41:00,0.0,1.9093,0.0008,385.60,0.33,224.2,32.9,138.04,31.80,24.66,36.50,0.92,9.13,-26.67,-45,39,-938,23.0,21.3,-0.3,23.4,1.8,-29.5,5.73,2.52,-27.7,29.9
2012-09-06 01:42:00,0.0,1.9095,0.0009,385.65,0.23,218.1,32.2,138.04,31.80,24.66,36.50,0.92,9.48,-26.66,-45,39,-938,23.0,21.4,-0.3,23.4,1.8,-29.5,5.73,2.53,-27.7,29.9
2012-09-06 01:43:00,0.0,1.9094,0.0010,385.59,0.29,225.1,36.0,138.04,31.79,24.65,36.50,0.92,9.83,-26.65,-45,39,-938,22.9,21.5,-0.3,23.4,1.8,-29.5,5.73,2.55,-27.8,29.9
2012-09-06 01:44:00,0.0,1.9087,0.0008,385.48,0.26,213.9,29.3,138.04,31.78,24.66,36.51,0.92,10.16,-26.65,-45,39,-938,22.9,21.7,-0.1,23.4,1.8,-29.6,5.73,2.55,-27.8,29.9
2012-09-06 01:45:00,0.0,1.9094,0.0009,385.57,0.29,210.1,26.4,138.04,31.78,24.65,36.50,0.93,10.49,-26.65,-45,39,-938,22.9,21.6,-0.3,23.3,1.8,-29.5,5.73,2.53,-27.8,29.8
2012-09-06 01:46:00,0.0,1.9095,0.0009,385.56,0.27,217.1,32.5,138.04,31.77,24.65,36.50,0.93,10.80,-26.65,-45,39,-937,22.8,21.5,-0.3,23.3,1.8,-29.5,5.73,2.52,-27.8,29.8
2012-09-06 01:47:00,0.0,1.9095,0.0008,385.48,0.31,211.1,34.1,138.05,31.76,24.65,36.51,0.94,11.10,-26.64,-45,39,-937,22.8,21.6,-0.3,23.3,1.8,-29.6,5.73,2.55,-27.8,29.8
2012-09-06 01:48:00,0.0,1.9090,0.0009,385.58,0.29,219.1,29.7,138.05,31.75,24.66,36.50,0.93,11.38,-26.64,-45,40,-937,22.8,21.7,-0.2,23.3,1.8,-29.6,5.73,2.56,-27.8,29.8
2012-09-06 01:49:00,0.0,1.9090,0.0009,385.53,0.32,216.5,33.6,138.05,31.74,24.66,36.50,0.92,11.66,-26.64,-45,40,-937,22.8,21.7,-0.3,23.3,1.8,-29.6,5.73,2.54,-27.8,29.8
2012-09-06 01:50:00,0.0,1.9091,0.0009,385.53,0.28,215.4,28.5,138.05,31.73,24.66,36.51,0.93,11.93,-26.63,-45,40,-937,22.8,21.6,-0.3,23.3,1.8,-29.6,5.73,2.52,-27.9,29.8
2012-09-06 01:51:00,0.0,1.9091,0.0008,385.45,0.25,218.3,32.7,138.05,31.72,24.66,36.50,0.92,12.18,-26.63,-45,40,-937,22.7,21.7,-0.3,23.3,1.8,-29.6,5.73,2.54,-27.9,29.7
2012-09-06 01:52:00,0.0,1.9092,0.0008,385.50,0.30,220.4,25.5,138.05,31.71,24.65,36.50,0.90,12.42,-26.63,-45,40,-937,22.7,21.8,-0.2,23.2,1.8,-29.6,5.73,2.56,-27.9,29.8
2012-09-06 01:53:00,0.0,1.9095,0.0009,385.41,0.33,216.6,32.8,138.05,31.70,24.65,36.51,0.90,12.66,-26.62,-45,40,-937,22.7,21.7,-0.3,23.2,1.8,-29.6,5.73,2.56,-27.9,29.8
2012-09-06 01:54:00,0.0,1.9102,0.0010,385.51,0.30,214.0,30.0,138.05,31.69,24.65,36.50,0.90,12.88,-26.62,-45,40,-937,22.7,21.8,-0.3,23.2,1.8,-29.6,5.73,2.53,-27.9,29.8
2012-09-06 01:55:00,0.0,1.9099,0.0007,385.48,0.27,218.4,28.2,138.05,31.68,24.65,36.50,0.88,13.09,-26.62,-45,40,-937,22.6,21.8,-0.3,23.2,1.9,-29.5,5.73,2.53,-27.9,29.7
2012-09-06 01:56:00,0.0,1.9084,0.0009,385.32,0.29,216.4,30.0,138.05,31.67,24.66,36.51,0.91,13.29,-26.62,-45,40,-937,22.6,22.0,-0.2,23.2,1.9,-29.5,5.73,2.56,-27.9,29.7
2012-09-06 01:57:00,0.0,1.9089,0.0008,385.31,0.34,219.8,30.3,138.05,31.66,24.65,36.51,0.89,13.48,-26.61,-45,40,-937,22.6,22.2,-0.1,23.1,1.9,-29.5,5.73,2.56,-27.9,29.7
2012-09-06 01:58:00,0.0,1.9085,0.0011,385.39,0.29,219.4,33.3,138.05,31.65,24.65,36.51,0.91,13.67,-26.62,-45,40,-937,22.5,22.1,-0.2,23.1,1.9,-29.5,5.73,2.54,-28.0,29.6
2012-09-06 01:59:00,0.0,1.9083,0.0008,385.26,0.26,210.4,31.1,138.05,31.64,24.65,36.51,0.92,13.84,-26.61,-45,40,-936,22.5,22.2,-0.2,23.0,1.9,-29.6,5.73,2.53,-28.0,29.6
2012-09-06 02:00:00,0.0,1.9081,0.0010,385.24,0.22,217.6,24.7,138.05,31.63,24.65,36.51,0.92,14.02,-26.61,-45,40,-937,22.4,22.3,-0.2,23.0,1.9,-29.6,5.73,2.56,-28.0,29.6
2012-09-06 02:01:00,0.0,1.9074,0.0008,385.27,0.27,211.3,34.6,138.05,31.62,24.66,36.51,0.92,14.18,-26.61,-45,40,-937,22.4,22.3,-0.2,23.0,1.9,-29.7,5.73,2.56,-28.0,29.5
2012-09-06 02:02:00,0.0,1.9275,0.0167,385.49,0.34,212.0,30.4,138.05,31.61,24.65,36.51,0.91,14.33,-26.61,-45,40,-937,22.4,22.5,-0.1,22.9,1.9,-29.7,5.73,2.53,-28.0,29.5
2012-09-06 02:03:00,0.0,1.9125,0.0079,385.46,0.29,222.1,27.7,138.05,31.60,24.66,36.51,0.92,14.48,-26.61,-45,40,-937,22.3,22.4,-0.2,22.9,1.9,-29.7,5.73,2.54,-28.0,29.5
2012-09-06 02:04:00,0.0,1.9057,0.0009,385.48,0.32,214.0,29.0,138.06,31.59,24.65,36.51,0.93,14.62,-26.61,-45,40,-936,22.4,22.0,-0.4,22.9,1.9,-29.7,5.73,2.57,-28.0,29.5
2012-09-06 02:05:00,0.0,1.9042,0.0011,385.54,0.26,221.2,31.2,138.05,31.58,24.66,36.51,0.92,14.75,-26.61,-45,40,-936,22.4,21.9,-0.4,22.9,1.9,-29.7,5.73,2.56,-28.0,29.5
2012-09-06 02:06:00,0.0,1.9047,0.0011,385.57,0.25,218.6,33.6,138.06,31.57,24.65,36.51,0.92,14.88,-26.61,-45,40,-937,22.4,21.8,-0.5,23.0,1.9,-29.6,5.73,2.53,-28.0,29.5
2012-09-06 02:07:00,0.0,1.9042,0.0009,385.60,0.29,225.9,33.9,138.05,31.56,24.66,36.51,0.93,15.00,-26.61,-45,40,-937,22.4,21.9,-0.4,23.0,1.9,-29.6,5.73,2.54,-28.0,29.6
2012-09-06 02:08:00,0.0,1.9038,0.0009,385.58,0.28,221.6,30.4,138.06,31.55,24.66,36.51,0.93,15.12,-26.61,-45,40,-936,22.5,22.0,-0.3,23.0,1.9,-29.6,5.73,2.57,-28.0,29.6
2012-09-06 02:09:00,0.0,1.9035,0.0008,385.62,0.32,221.4,29.7,138.06,31.54,24.65,36.51,0.94,15.24,-26.61,-45,40,-937,22.5,21.8,-0.4,23.0,1.9,-29.6,5.73,2.56,-28.0,29.5
2012-09-06 02:10:00,0.0,1.9036,0.0007,385.66,0.26,221.3,28.5,138.06,31.53,24.65,36.51,0.94,15.35,-26.60,-45,40,-937,22.5,21.6,-0.6,23.0,1.9,-29.6,5.73,2.54,-28.0,29.5
2012-09-06 02:11:00,0.0,1.9039,0.0010,385.69,0.30,220.5,36.3,138.06,31.52,24.65,36.51,0.93,15.45,-26.60,-45,40,-936,22.5,21.5,-0.6,23.0,1.9,-29.6,5.73,2.55,-28.0,29.5
2012-09-06 02:12:00,0.0,1.9042,0.0010,385.56,0.31,218.3,27.6,138.06,31.51,24.65,36.51,0.93,15.55,-26.60,-45,40,-936,22.6,21.5,-0.6,23.0,1.9,-29.6,5.73,2.57,-28.0,29.5
2012-09-06 02:13:00,0.0,1.9048,0.0008,385.55,0.25,227.1,28.4,138.06,31.50,24.65,36.51,0.93,15.65,-26.60,-45,40,-937,22.6,21.5,-0.5,23.1,1.9,-29.6,5.73,2.55,-28.0,29.5
2012-09-06 02:14:00,0.0,1.9058,0.0013,385.34,0.31,225.9,23.6,138.06,31.49,24.66,36.51,0.92,15.74,-26.60,-45,40,-936,22.6,21.9,-0.3,23.1,1.9,-29.6,5.73,2.53,-28.0,29.5
2012-09-06 02:15:00,0.0,1.9064,0.0009,385.39,0.28,223.9,29.1,138.06,31.48,24.65,36.51,0.95,15.83,-26.60,-45,40,-937,22.7,22.1,-0.1,23.1,1.9,-29.5,5.73,2.55,-27.9,29.5
2012-09-06 02:16:00,0.0,1.9062,0.0007,385.50,0.28,228.2,24.8,138.06,31.47,24.65,36.51,0.91,15.91,-26.60,-45,40,-937,22.7,21.7,-0.3,23.1,1.9,-29.5,5.73,2.57,-28.0,29.5
2012-09-06 02:17:00,0.0,1.9065,0.0010,385.45,0.30,223.8,29.2,138.06,31.46,24.65,36.51,0.90,15.99,-26.59,-45,40,-936,22.7,21.6,-0.3,23.1,1.9,-29.5,5.73,2.55,-28.0,29.5
2012-09-06 02:18:00,0.0,1.9037,0.0011,385.58,0.27,215.3,29.9,138.06,31.45,24.65,36.51,0.92,16.07,-26.60,-45,40,-937,22.8,21.4,-0.4,23.2,1.9,-29.5,5.73,2.53,-27.9,29.6
2012-09-06 02:19:00,0.0,1.9033,0.0008,385.59,0.28,216.7,28.9,138.06,31.44,24.65,36.51,0.91,16.14,-26.59,-45,40,-937,22.8,21.3,-0.5,23.2,1.9,-29.5,5.73,2.55,-28.0,29.6
2012-09-06 02:20:00,0.0,1.9040,0.0009,385.44,0.30,216.7,33.6,138.06,31.43,24.66,36.51,0.89,16.22,-26.59,-45,40,-936,22.8,21.4,-0.4,23.2,1.8,-29.7,5.73,2.57,-27.9,29.5